This is the latest recevied weather packets stored in our database for station/object K2NV. If no packets are shown the sender has not sent any weather packets the latest 10 day(s).
| Time | Temp. | Humidity | Pressure | Rain* | Wind** | Luminosity | Snow |
|---|---|---|---|---|---|---|---|
| 1777576161 | 7.78° C | 80% | 1011.3 hPa | 0 mm | - | - | - |
| 1777575858 | 7.78° C | 80% | 1011.3 hPa | 0 mm | - | - | - |
| 1777575560 | 7.78° C | 79% | 1011.2 hPa | 0 mm | - | - | - |
| 1777575258 | 8.33° C | 78% | 1011.2 hPa | 0 mm | - | - | - |
| 1777574658 | 8.89° C | 75% | 1011.1 hPa | 0 mm | - | - | - |
| 1777574357 | 9.44° C | 74% | 1011.1 hPa | 0 mm | - | - | - |
| 1777574058 | 9.44° C | 72% | 1011.1 hPa | 0 mm | - | - | - |
| 1777573759 | 9.44° C | 68% | 1011 hPa | 0 mm | - | - | - |
| 1777573158 | 10° C | 67% | 1011.1 hPa | 0 mm | - | - | - |
| 1777572857 | 10.56° C | 68% | 1011 hPa | 0 mm | - | - | - |
| 1777572560 | 10.56° C | 67% | 1010.9 hPa | 0 mm | - | - | - |
| 1777572257 | 11.11° C | 65% | 1010.9 hPa | 0 mm | - | - | - |
| 1777571958 | 11.67° C | 65% | 1010.9 hPa | 0 mm | - | - | - |
| 1777571658 | 11.67° C | 63% | 1010.9 hPa | 0 mm | - | - | - |
| 1777571357 | 11.67° C | 67% | 1010.9 hPa | 0 mm | - | - | - |
| 1777571058 | 11.67° C | 68% | 1010.9 hPa | 0 mm | - | - | - |
| 1777570758 | 11.11° C | 67% | 1010.9 hPa | 0 mm | - | - | - |
| 1777570457 | 10.56° C | 66% | 1010.9 hPa | 0 mm | - | - | - |
| 1777570157 | 10.56° C | 68% | 1010.9 hPa | 0 mm | - | - | - |
| 1777569857 | 10° C | 68% | 1010.9 hPa | 0 mm | - | - | - |
| 1777569555 | 10° C | 68% | 1010.9 hPa | 0 mm | - | - | - |
| 1777569258 | 10° C | 70% | 1010.9 hPa | 0 mm | - | - | - |
| 1777568957 | 10° C | 70% | 1010.9 hPa | 0 mm | - | - | - |
| 1777568656 | 10° C | 68% | 1010.9 hPa | 0 mm | - | - | - |
| 1777568357 | 10° C | 69% | 1011 hPa | 0 mm | - | - | - |
* Rain latest hour (hover to see other rain measurements)
** Current wind speed in m/s (hover to see current wind gust speed)